sat.trackr.live / text

‹ back to catalog

STARLINK-4633

NORAD 53964 · 2022-125A

PAYLOAD ACTIVE UNKNOWN

§ Identity

Operator
Country
US
Launch date
2022-10-05
Launch site
AFWTR
Launch vehicle
Mass (kg)
RCS (m²)

Purposes: comms

External: N2YO · Heavens-Above · Gunter

§ Orbital elements

Epoch: 2026-09-20T17:41:33.424224Z

Period
93.85 min
Inclination
53.1614°
Eccentricity
0.0001266
Mean motion
15.34392651 rev/d
Perigee alt
461.9 km
Apogee alt
463.6 km
Semi-major
6,840.9 km
B*
3.5363e-5
RAAN
60.4295°
Arg perigee
85.2859°
Mean anomaly
274.8288°
Rev number
21,887

§ Raw data

STARLINK-46331 53964U 22125A   26263.73719241  .00000818  00000+0  35363-4 0  99922 53964  53.1614  60.4295 0001266  85.2859 274.8288 15.34392651218871

JSON: /api/v1/satellites/53964 · /tle

For live sub-satellite position, see the globe view (requires WebGL).

§ Visibility from observer

Set your observer location to see the next 7 days of passes ≥ 10°. The values pass through the URL so the page stays shareable.

No JS? Fill the form by hand. The geolocation button needs JavaScript.